| time (UTC) | temp C | wind direction | speed KPH | gust KPH | rain 1hr cm | rain 24hr cm | rain mn cm | humidity % | barometer mb |
| 20260502130548 | 11 | 0 | 0.0 | 0.0 | 0.00 | 0.00 | 0.00 | 30 | 1018.9 |
| 20260502123550 | 12 | 328 | 0.0 | 3.2 | 0.00 | 0.00 | 0.00 | 27 | 1018.5 |
| 20260502123059 | 11 | 330 | 1.6 | 3.2 | 0.00 | 0.00 | 0.00 | 26 | 1018.5 |
| 20260502122548 | 11 | 326 | 0.0 | 3.2 | 0.00 | 0.00 | 0.00 | 27 | 1018.4 |
| 20260502122048 | 11 | 349 | 0.0 | 3.2 | 0.00 | 0.00 | 0.00 | 27 | 1018.3 |
| 20260502121548 | 12 | 324 | 0.0 | 3.2 | 0.00 | 0.00 | 0.00 | 26 | 1018.3 |
| 20260502121047 | 12 | 297 | 0.0 | 1.6 | 0.00 | 0.00 | 0.00 | 26 | 1018.2 |
| 20260502120548 | 12 | 316 | 0.0 | 1.6 | 0.00 | 0.00 | 0.00 | 26 | 1018.1 |
| 20260502115548 | 12 | 305 | 0.0 | 1.6 | 0.00 | 0.00 | 0.00 | 26 | 1018.2 |
| 20260502115048 | 11 | 304 | 0.0 | 1.6 | 0.00 | 0.00 | 0.00 | 26 | 1018.1 |
| 20260502114555 | 11 | 166 | 0.0 | 0.0 | 0.00 | 0.00 | 0.00 | 27 | 1018.1 |
| 20260502114048 | 11 | 165 | 0.0 | 0.0 | 0.00 | 0.00 | 0.00 | 28 | 1018.1 |
| 20260502113548 | 11 | 0 | 0.0 | 0.0 | 0.00 | 0.00 | 0.00 | 29 | 1018.1 |
| 20260502113053 | 10 | 0 | 0.0 | 0.0 | 0.00 | 0.00 | 0.00 | 30 | 1018.1 |
| 20260502112547 | 11 | 0 | 0.0 | 0.0 | 0.00 | 0.00 | 0.00 | 30 | 1018.2 |
| 20260502112047 | 11 | 0 | 0.0 | 0.0 | 0.00 | 0.00 | 0.00 | 29 | 1018.2 |
| 20260502111550 | 11 | 0 | 0.0 | 0.0 | 0.00 | 0.00 | 0.00 | 28 | 1018.1 |
| 20260502111049 | 11 | 0 | 0.0 | 0.0 | 0.00 | 0.00 | 0.00 | 28 | 1018.1 |
| 20260502110548 | 11 | 0 | 0.0 | 0.0 | 0.00 | 0.00 | 0.00 | 28 | 1018.1 |
| 20260502110054 | 11 | 0 | 0.0 | 0.0 | 0.00 | 0.00 | 0.00 | 28 | 1018.0 |
| 20260502105548 | 11 | 0 | 0.0 | 0.0 | 0.00 | 0.00 | 0.00 | 29 | 1018.0 |
| 20260502105049 | 11 | 0 | 0.0 | 1.6 | 0.00 | 0.00 | 0.00 | 27 | 1018.0 |
| 20260502104551 | 12 | 0 | 0.0 | 1.6 | 0.00 | 0.00 | 0.00 | 27 | 1018.1 |
| 20260502104048 | 12 | 0 | 0.0 | 1.6 | 0.00 | 0.00 | 0.00 | 27 | 1018.1 |
| 20260502103548 | 12 | 0 | 0.0 | 1.6 | 0.00 | 0.00 | 0.00 | 24 | 1018.0 |
| 20260502103058 | 12 | 0 | 0.0 | 1.6 | 0.00 | 0.00 | 0.00 | 24 | 1017.9 |
| 20260502102548 | 12 | 337 | 0.0 | 1.6 | 0.00 | 0.00 | 0.00 | 24 | 1018.0 |
| 20260502102049 | 12 | 0 | 0.0 | 1.6 | 0.00 | 0.00 | 0.00 | 24 | 1018.0 |
| 20260502101559 | 13 | 0 | 0.0 | 1.6 | 0.00 | 0.00 | 0.00 | 24 | 1018.0 |
| 20260502101047 | 13 | 0 | 0.0 | 1.6 | 0.00 | 0.00 | 0.00 | 24 | 1018.0 |
| 20260502100548 | 13 | 330 | 0.0 | 1.6 | 0.00 | 0.00 | 0.00 | 24 | 1017.9 |
| 20260502100110 | 13 | 0 | 0.0 | 1.6 | 0.00 | 0.00 | 0.00 | 24 | 1017.9 |
| 20260502091047 | 13 | 0 | 0.0 | 1.6 | 0.00 | 0.00 | 0.00 | 23 | 1017.7 |
| 20260502090551 | 13 | 10 | 0.0 | 1.6 | 0.00 | 0.00 | 0.00 | 23 | 1017.6 |
| 20260502071048 | 16 | 66 | 0.0 | 3.2 | 0.00 | 0.00 | 0.00 | 18 | 1017.4 |
| 20260502070548 | 16 | 27 | 0.0 | 3.2 | 0.00 | 0.00 | 0.00 | 19 | 1017.4 |
| 20260502070053 | 17 | 0 | 1.6 | 3.2 | 0.00 | 0.00 | 0.00 | 18 | 1017.3 |
| 20260502065548 | 17 | 0 | 0.0 | 4.8 | 0.00 | 0.00 | 0.00 | 18 | 1017.3 |
| 20260502065049 | 17 | 83 | 0.0 | 4.8 | 0.00 | 0.00 | 0.00 | 18 | 1017.3 |
| 20260502064555 | 17 | 25 | 1.6 | 4.8 | 0.00 | 0.00 | 0.00 | 18 | 1017.2 |
| 20260502064048 | 17 | 39 | 0.0 | 3.2 | 0.00 | 0.00 | 0.00 | 17 | 1017.2 |
| 20260502063548 | 18 | 359 | 0.0 | 4.8 | 0.00 | 0.00 | 0.00 | 17 | 1017.1 |
| 20260502063106 | 18 | 82 | 0.0 | 4.8 | 0.00 | 0.00 | 0.00 | 17 | 1017.0 |
| 20260502062550 | 18 | 126 | 0.0 | 3.2 | 0.00 | 0.00 | 0.00 | 16 | 1017.0 |
| 20260502062047 | 19 | 153 | 0.0 | 4.8 | 0.00 | 0.00 | 0.00 | 15 | 1017.0 |
| 20260502061610 | 20 | 91 | 1.6 | 4.8 | 0.00 | 0.00 | 0.00 | 14 | 1016.9 |
| 20260502061047 | 20 | 15 | 0.0 | 6.4 | 0.00 | 0.00 | 0.00 | 14 | 1016.8 |
| 20260502060548 | 20 | 91 | 0.0 | 12.9 | 0.00 | 0.00 | 0.00 | 14 | 1016.8 |
| 20260502060058 | 20 | 353 | 1.6 | 12.9 | 0.00 | 0.00 | 0.00 | 14 | 1016.8 |
| 20260502055548 | 20 | 300 | 1.6 | 8.0 | 0.00 | 0.00 | 0.00 | 14 | 1016.7 |
| 20260502055047 | 19 | 331 | 1.6 | 6.4 | 0.00 | 0.00 | 0.00 | 14 | 1016.8 |
| 20260502054600 | 19 | 257 | 0.0 | 1.6 | 0.00 | 0.00 | 0.00 | 14 | 1016.7 |
| 20260502054048 | 20 | 286 | 0.0 | 6.4 | 0.00 | 0.00 | 0.00 | 14 | 1016.6 |
| 20260502053548 | 20 | 343 | 0.0 | 6.4 | 0.00 | 0.00 | 0.00 | 14 | 1016.6 |
| 20260502053102 | 20 | 248 | 1.6 | 12.9 | 0.00 | 0.00 | 0.00 | 13 | 1016.6 |
| 20260502052549 | 21 | 99 | 1.6 | 12.9 | 0.00 | 0.00 | 0.00 | 13 | 1016.6 |
| 20260502052048 | 21 | 352 | 6.4 | 16.1 | 0.00 | 0.00 | 0.00 | 13 | 1016.6 |
| 20260502051555 | 21 | 328 | 8.0 | 16.1 | 0.00 | 0.00 | 0.00 | 13 | 1016.4 |
| 20260502051048 | 21 | 333 | 6.4 | 12.9 | 0.00 | 0.00 | 0.00 | 13 | 1016.4 |
| 20260502050547 | 21 | 350 | 6.4 | 17.7 | 0.00 | 0.00 | 0.00 | 12 | 1016.3 |
| 20260502050053 | 21 | 3 | 6.4 | 17.7 | 0.00 | 0.00 | 0.00 | 12 | 1016.2 |
| 20260502045551 | 21 | 14 | 6.4 | 14.5 | 0.00 | 0.00 | 0.00 | 12 | 1016.2 |
| 20260502045049 | 21 | 1 | 8.0 | 14.5 | 0.00 | 0.00 | 0.00 | 12 | 1016.1 |
| 20260502044552 | 21 | 347 | 4.8 | 12.9 | 0.00 | 0.00 | 0.00 | 13 | 1016.1 |
| 20260502044047 | 21 | 41 | 4.8 | 12.9 | 0.00 | 0.00 | 0.00 | 12 | 1016.0 |
| 20260502043547 | 21 | 333 | 3.2 | 11.3 | 0.00 | 0.00 | 0.00 | 12 | 1016.0 |
| 20260502043100 | 21 | 334 | 4.8 | 14.5 | 0.00 | 0.00 | 0.00 | 12 | 1015.9 |
| 20260502042548 | 21 | 339 | 6.4 | 16.1 | 0.00 | 0.00 | 0.00 | 12 | 1015.8 |
| 20260502042048 | 21 | 335 | 8.0 | 16.1 | 0.00 | 0.00 | 0.00 | 12 | 1015.8 |
| 20260502041558 | 21 | 319 | 8.0 | 17.7 | 0.00 | 0.00 | 0.00 | 12 | 1015.7 |
| 20260502041049 | 21 | 37 | 9.7 | 17.7 | 0.00 | 0.00 | 0.00 | 12 | 1015.7 |
| 20260502040548 | 21 | 352 | 8.0 | 17.7 | 0.00 | 0.00 | 0.00 | 12 | 1015.7 |
| 20260502040055 | 21 | 325 | 6.4 | 19.3 | 0.00 | 0.00 | 0.00 | 12 | 1015.6 |
| 20260502035548 | 21 | 338 | 6.4 | 24.1 | 0.00 | 0.00 | 0.00 | 12 | 1015.5 |
| 20260502035048 | 21 | 335 | 8.0 | 24.1 | 0.00 | 0.00 | 0.00 | 12 | 1015.4 |
| 20260502034553 | 21 | 342 | 4.8 | 12.9 | 0.00 | 0.00 | 0.00 | 12 | 1015.3 |
| 20260502034048 | 21 | 356 | 4.8 | 14.5 | 0.00 | 0.00 | 0.00 | 12 | 1015.3 |
| 20260502033548 | 21 | 245 | 6.4 | 14.5 | 0.00 | 0.00 | 0.00 | 12 | 1015.2 |
| 20260502033052 | 21 | 349 | 6.4 | 14.5 | 0.00 | 0.00 | 0.00 | 12 | 1015.2 |
| 20260502032548 | 21 | 340 | 4.8 | 16.1 | 0.00 | 0.00 | 0.00 | 12 | 1015.1 |
| 20260502032047 | 21 | 5 | 4.8 | 19.3 | 0.00 | 0.00 | 0.00 | 12 | 1015.0 |
| 20260502031553 | 21 | 328 | 9.7 | 19.3 | 0.00 | 0.00 | 0.00 | 12 | 1014.9 |
| 20260502031047 | 21 | 1 | 8.0 | 27.4 | 0.00 | 0.00 | 0.00 | 12 | 1014.8 |
| 20260502030548 | 21 | 348 | 6.4 | 27.4 | 0.00 | 0.00 | 0.00 | 12 | 1014.8 |
| 20260502025548 | 22 | 336 | 8.0 | 17.7 | 0.00 | 0.00 | 0.00 | 12 | 1014.6 |
| 20260502025048 | 22 | 346 | 6.4 | 16.1 | 0.00 | 0.00 | 0.00 | 12 | 1014.6 |
| 20260502024604 | 22 | 349 | 6.4 | 16.1 | 0.00 | 0.00 | 0.00 | 12 | 1014.6 |
| 20260502024050 | 22 | 1 | 8.0 | 16.1 | 0.00 | 0.00 | 0.00 | 12 | 1014.6 |
| 20260502023551 | 22 | 320 | 6.4 | 16.1 | 0.00 | 0.00 | 0.00 | 12 | 1014.4 |
| 20260502023052 | 22 | 330 | 8.0 | 16.1 | 0.00 | 0.00 | 0.00 | 12 | 1014.4 |
| 20260502022548 | 22 | 304 | 6.4 | 14.5 | 0.00 | 0.00 | 0.00 | 12 | 1014.3 |
| 20260502022047 | 22 | 350 | 6.4 | 14.5 | 0.00 | 0.00 | 0.00 | 11 | 1014.3 |
| 20260502021555 | 22 | 330 | 6.4 | 17.7 | 0.00 | 0.00 | 0.00 | 11 | 1014.3 |
| 20260502021048 | 23 | 331 | 6.4 | 17.7 | 0.00 | 0.00 | 0.00 | 11 | 1014.3 |
| 20260502020548 | 23 | 347 | 8.0 | 17.7 | 0.00 | 0.00 | 0.00 | 11 | 1014.2 |
| 20260502020048 | 23 | 107 | 6.4 | 14.5 | 0.00 | 0.00 | 0.00 | 11 | 1014.2 |
| 20260502015548 | 23 | 298 | 6.4 | 14.5 | 0.00 | 0.00 | 0.00 | 11 | 1014.2 |
| 20260502015048 | 23 | 293 | 6.4 | 14.5 | 0.00 | 0.00 | 0.00 | 11 | 1014.1 |
| 20260502014550 | 24 | 347 | 8.0 | 14.5 | 0.00 | 0.00 | 0.00 | 10 | 1014.1 |
| 20260502014048 | 24 | 335 | 8.0 | 16.1 | 0.00 | 0.00 | 0.00 | 10 | 1014.0 |
| 20260502013548 | 24 | 313 | 8.0 | 16.1 | 0.00 | 0.00 | 0.00 | 10 | 1014.0 |
| 20260502013052 | 24 | 332 | 6.4 | 16.1 | 0.00 | 0.00 | 0.00 | 10 | 1013.9 |
| 20260502012552 | 24 | 354 | 6.4 | 16.1 | 0.00 | 0.00 | 0.00 | 10 | 1014.1 |
| 20260502012048 | 24 | 328 | 8.0 | 16.1 | 0.00 | 0.00 | 0.00 | 11 | 1014.1 |
| 20260502011550 | 25 | 333 | 6.4 | 16.1 | 0.00 | 0.00 | 0.00 | 10 | 1014.0 |
| 20260502011047 | 25 | 20 | 8.0 | 16.1 | 0.00 | 0.00 | 0.00 | 11 | 1014.1 |
| 20260502010547 | 25 | 311 | 4.8 | 16.1 | 0.00 | 0.00 | 0.00 | 10 | 1014.0 |
| 20260502010101 | 25 | 321 | 8.0 | 16.1 | 0.00 | 0.00 | 0.00 | 10 | 1014.1 |
| 20260502005548 | 25 | 32 | 4.8 | 12.9 | 0.00 | 0.00 | 0.00 | 11 | 1014.0 |
| 20260502005048 | 25 | 44 | 6.4 | 17.7 | 0.00 | 0.00 | 0.00 | 11 | 1014.0 |
| 20260502004548 | 25 | 355 | 6.4 | 17.7 | 0.00 | 0.00 | 0.00 | 10 | 1014.0 |
| 20260502004048 | 25 | 11 | 4.8 | 14.5 | 0.00 | 0.00 | 0.00 | 10 | 1014.0 |
| 20260502003547 | 25 | 358 | 4.8 | 14.5 | 0.00 | 0.00 | 0.00 | 10 | 1013.9 |
| 20260502003047 | 25 | 27 | 6.4 | 12.9 | 0.00 | 0.00 | 0.00 | 10 | 1013.9 |
| 20260502002548 | 26 | 338 | 3.2 | 11.3 | 0.00 | 0.00 | 0.00 | 9 | 1014.0 |
| 20260502002048 | 25 | 300 | 4.8 | 16.1 | 0.00 | 0.00 | 0.00 | 9 | 1014.1 |
| 20260502001551 | 25 | 332 | 8.0 | 16.1 | 0.00 | 0.00 | 0.00 | 10 | 1014.1 |
| 20260502001047 | 25 | 347 | 8.0 | 16.1 | 0.00 | 0.00 | 0.00 | 9 | 1014.1 |
| 20260502000548 | 26 | 320 | 4.8 | 14.5 | 0.00 | 0.00 | 0.00 | 9 | 1014.1 |
| 20260502000050 | 26 | 333 | 4.8 | 19.3 | 0.00 | 0.00 | 0.00 | 9 | 1014.2 |
| 20260501235548 | 26 | 37 | 6.4 | 19.3 | 0.00 | 0.00 | 0.00 | 8 | 1014.2 |
| 20260501235047 | 26 | 34 | 8.0 | 17.7 | 0.00 | 0.00 | 0.00 | 9 | 1014.3 |
| 20260501234549 | 26 | 262 | 4.8 | 12.9 | 0.00 | 0.00 | 0.00 | 9 | 1014.2 |
| 20260501234048 | 26 | 313 | 4.8 | 19.3 | 0.00 | 0.00 | 0.00 | 9 | 1014.2 |
| 20260501233548 | 26 | 332 | 3.2 | 19.3 | 0.00 | 0.00 | 0.00 | 9 | 1014.2 |
| 20260501233048 | 26 | 292 | 8.0 | 19.3 | 0.00 | 0.00 | 0.00 | 9 | 1014.3 |
| 20260501232547 | 26 | 316 | 3.2 | 17.7 | 0.00 | 0.00 | 0.00 | 8 | 1014.1 |
| 20260501232048 | 26 | 345 | 6.4 | 17.7 | 0.00 | 0.00 | 0.00 | 8 | 1014.1 |
| 20260501231554 | 26 | 338 | 8.0 | 16.1 | 0.00 | 0.00 | 0.00 | 8 | 1014.1 |
| 20260501231048 | 26 | 324 | 4.8 | 19.3 | 0.00 | 0.00 | 0.00 | 9 | 1014.2 |
| 20260501230548 | 26 | 65 | 6.4 | 19.3 | 0.00 | 0.00 | 0.00 | 9 | 1014.0 |
| 20260501230058 | 26 | 345 | 9.7 | 19.3 | 0.00 | 0.00 | 0.00 | 9 | 1014.2 |
| 20260501225550 | 26 | 18 | 4.8 | 20.9 | 0.00 | 0.00 | 0.00 | 10 | 1014.0 |
| 20260501225048 | 26 | 353 | 8.0 | 25.7 | 0.00 | 0.00 | 0.00 | 9 | 1014.2 |
| 20260501224549 | 26 | 352 | 8.0 | 25.7 | 0.00 | 0.00 | 0.00 | 9 | 1014.1 |
| 20260501224049 | 26 | 340 | 6.4 | 16.1 | 0.00 | 0.00 | 0.00 | 10 | 1014.1 |
| 20260501223550 | 26 | 63 | 3.2 | 16.1 | 0.00 | 0.00 | 0.00 | 10 | 1014.1 |
| 20260501223054 | 26 | 349 | 4.8 | 16.1 | 0.00 | 0.00 | 0.00 | 10 | 1014.2 |
| 20260501222548 | 26 | 360 | 6.4 | 22.5 | 0.00 | 0.00 | 0.00 | 10 | 1014.3 |
| 20260501222048 | 26 | 7 | 1.6 | 22.5 | 0.00 | 0.00 | 0.00 | 11 | 1014.2 |
| 20260501221548 | 25 | 326 | 8.0 | 22.5 | 0.00 | 0.00 | 0.00 | 10 | 1014.5 |
| 20260501221051 | 26 | 354 | 4.8 | 14.5 | 0.00 | 0.00 | 0.00 | 10 | 1014.3 |
| 20260501220550 | 26 | 333 | 6.4 | 22.5 | 0.00 | 0.00 | 0.00 | 10 | 1014.4 |
| 20260501220053 | 25 | 325 | 9.7 | 24.1 | 0.00 | 0.00 | 0.00 | 10 | 1014.5 |
| 20260501215549 | 25 | 349 | 9.7 | 24.1 | 0.00 | 0.00 | 0.00 | 11 | 1014.5 |
| 20260501215048 | 25 | 354 | 11.3 | 24.1 | 0.00 | 0.00 | 0.00 | 12 | 1014.6 |
| 20260501214554 | 26 | 335 | 12.9 | 24.1 | 0.00 | 0.00 | 0.00 | 12 | 1014.6 |
| 20260501214048 | 26 | 321 | 6.4 | 17.7 | 0.00 | 0.00 | 0.00 | 12 | 1014.6 |
| 20260501213548 | 26 | 342 | 9.7 | 17.7 | 0.00 | 0.00 | 0.00 | 12 | 1014.6 |
| 20260501213050 | 26 | 360 | 8.0 | 19.3 | 0.00 | 0.00 | 0.00 | 12 | 1014.6 |
| 20260501212548 | 26 | 328 | 9.7 | 19.3 | 0.00 | 0.00 | 0.00 | 12 | 1014.6 |
| 20260501212048 | 26 | 321 | 6.4 | 20.9 | 0.00 | 0.00 | 0.00 | 12 | 1014.5 |
| 20260501211601 | 25 | 335 | 8.0 | 20.9 | 0.00 | 0.00 | 0.00 | 11 | 1014.8 |
| 20260501211047 | 25 | 360 | 11.3 | 20.9 | 0.00 | 0.00 | 0.00 | 11 | 1014.8 |
| 20260501210547 | 25 | 304 | 11.3 | 20.9 | 0.00 | 0.00 | 0.00 | 11 | 1014.6 |
| 20260501210050 | 25 | 357 | 9.7 | 24.1 | 0.00 | 0.00 | 0.00 | 11 | 1014.7 |
| 20260501205549 | 25 | 340 | 8.0 | 24.1 | 0.00 | 0.00 | 0.00 | 12 | 1014.8 |
| 20260501205047 | 26 | 257 | 11.3 | 24.1 | 0.00 | 0.00 | 0.00 | 11 | 1014.8 |
| 20260501204631 | 25 | 326 | 6.4 | 19.3 | 0.00 | 0.00 | 0.00 | 11 | 1014.8 |
| 20260501204047 | 26 | 332 | 8.0 | 20.9 | 0.00 | 0.00 | 0.00 | 11 | 1014.9 |
| 20260501203547 | 26 | 347 | 8.0 | 20.9 | 0.00 | 0.00 | 0.00 | 10 | 1014.9 |
| 20260501203054 | 25 | 344 | 3.2 | 19.3 | 0.00 | 0.00 | 0.00 | 10 | 1014.8 |
| 20260501202548 | 25 | 338 | 9.7 | 19.3 | 0.00 | 0.00 | 0.00 | 9 | 1015.0 |
| 20260501202048 | 25 | 261 | 6.4 | 16.1 | 0.00 | 0.00 | 0.00 | 11 | 1014.9 |
| 20260501201550 | 25 | 336 | 8.0 | 16.1 | 0.00 | 0.00 | 0.00 | 11 | 1014.9 |
| 20260501201048 | 25 | 316 | 4.8 | 14.5 | 0.00 | 0.00 | 0.00 | 11 | 1015.0 |
| 20260501200549 | 25 | 338 | 8.0 | 16.1 | 0.00 | 0.00 | 0.00 | 11 | 1015.0 |
| 20260501200053 | 25 | 309 | 6.4 | 16.1 | 0.00 | 0.00 | 0.00 | 10 | 1015.2 |
| 20260501195548 | 25 | 321 | 8.0 | 16.1 | 0.00 | 0.00 | 0.00 | 10 | 1015.0 |
| 20260501195048 | 25 | 9 | 1.6 | 14.5 | 0.00 | 0.00 | 0.00 | 12 | 1014.9 |
| 20260501194558 | 25 | 30 | 3.2 | 16.1 | 0.00 | 0.00 | 0.00 | 11 | 1015.2 |
| 20260501194047 | 25 | 354 | 4.8 | 17.7 | 0.00 | 0.00 | 0.00 | 11 | 1015.4 |
| 20260501193547 | 25 | 337 | 6.4 | 17.7 | 0.00 | 0.00 | 0.00 | 12 | 1015.4 |
| 20260501193050 | 25 | 326 | 6.4 | 16.1 | 0.00 | 0.00 | 0.00 | 12 | 1015.3 |
| 20260501192547 | 25 | 324 | 9.7 | 16.1 | 0.00 | 0.00 | 0.00 | 12 | 1015.4 |
| 20260501192047 | 25 | 307 | 6.4 | 14.5 | 0.00 | 0.00 | 0.00 | 11 | 1015.5 |
| 20260501191558 | 25 | 4 | 6.4 | 14.5 | 0.00 | 0.00 | 0.00 | 12 | 1015.5 |
| 20260501191048 | 25 | 9 | 4.8 | 14.5 | 0.00 | 0.00 | 0.00 | 13 | 1015.7 |
| 20260501190548 | 25 | 355 | 4.8 | 11.3 | 0.00 | 0.00 | 0.00 | 12 | 1015.7 |
| 20260501190057 | 24 | 41 | 4.8 | 16.1 | 0.00 | 0.00 | 0.00 | 12 | 1015.7 |
| 20260501185550 | 24 | 304 | 6.4 | 17.7 | 0.00 | 0.00 | 0.00 | 13 | 1015.8 |
| 20260501185048 | 25 | 353 | 9.7 | 17.7 | 0.00 | 0.00 | 0.00 | 12 | 1015.8 |
| 20260501184554 | 25 | 335 | 6.4 | 12.9 | 0.00 | 0.00 | 0.00 | 12 | 1015.9 |
| 20260501184051 | 24 | 71 | 6.4 | 12.9 | 0.00 | 0.00 | 0.00 | 12 | 1015.8 |
| 20260501183548 | 24 | 338 | 4.8 | 11.3 | 0.00 | 0.00 | 0.00 | 12 | 1015.8 |
| 20260501183053 | 24 | 330 | 4.8 | 11.3 | 0.00 | 0.00 | 0.00 | 12 | 1016.0 |
| 20260501182553 | 24 | 255 | 3.2 | 11.3 | 0.00 | 0.00 | 0.00 | 12 | 1016.1 |
| 20260501182047 | 24 | 310 | 4.8 | 11.3 | 0.00 | 0.00 | 0.00 | 12 | 1016.2 |
| 20260501181555 | 23 | 41 | 3.2 | 11.3 | 0.00 | 0.00 | 0.00 | 13 | 1016.4 |
| 20260501181052 | 23 | 190 | 4.8 | 9.7 | 0.00 | 0.00 | 0.00 | 14 | 1016.4 |
| 20260501180548 | 23 | 145 | 3.2 | 9.7 | 0.00 | 0.00 | 0.00 | 15 | 1016.4 |
| 20260501175548 | 23 | 169 | 4.8 | 11.3 | 0.00 | 0.00 | 0.00 | 15 | 1016.4 |
| 20260501175051 | 23 | 143 | 4.8 | 11.3 | 0.00 | 0.00 | 0.00 | 15 | 1016.5 |
| 20260501174602 | 23 | 73 | 0.0 | 11.3 | 0.00 | 0.00 | 0.00 | 15 | 1016.5 |
| 20260501174048 | 23 | 122 | 4.8 | 11.3 | 0.00 | 0.00 | 0.00 | 15 | 1016.6 |
| 20260501173548 | 23 | 127 | 4.8 | 11.3 | 0.00 | 0.00 | 0.00 | 14 | 1016.6 |
| 20260501173053 | 23 | 63 | 0.0 | 8.0 | 0.00 | 0.00 | 0.00 | 15 | 1016.5 |
| 20260501172548 | 22 | 0 | 1.6 | 8.0 | 0.00 | 0.00 | 0.00 | 15 | 1016.6 |
| 20260501172050 | 22 | 94 | 3.2 | 8.0 | 0.00 | 0.00 | 0.00 | 16 | 1016.7 |
| 20260501171553 | 22 | 148 | 3.2 | 6.4 | 0.00 | 0.00 | 0.00 | 15 | 1016.6 |
| 20260501171044 | 22 | 57 | 1.6 | 6.4 | 0.00 | 0.00 | 0.00 | 16 | 1016.8 |
| 20260501170548 | 22 | 124 | 1.6 | 6.4 | 0.00 | 0.00 | 0.00 | 17 | 1016.8 |
| 20260501170053 | 22 | 188 | 3.2 | 6.4 | 0.00 | 0.00 | 0.00 | 17 | 1016.8 |
| 20260501165549 | 22 | 134 | 1.6 | 6.4 | 0.00 | 0.00 | 0.00 | 17 | 1016.8 |
| 20260501165048 | 21 | 94 | 1.6 | 8.0 | 0.00 | 0.00 | 0.00 | 17 | 1016.9 |
| 20260501164600 | 21 | 122 | 1.6 | 8.0 | 0.00 | 0.00 | 0.00 | 18 | 1017.0 |
| 20260501164051 | 21 | 158 | 3.2 | 6.4 | 0.00 | 0.00 | 0.00 | 18 | 1016.8 |
| 20260501163548 | 21 | 94 | 1.6 | 8.0 | 0.00 | 0.00 | 0.00 | 19 | 1016.9 |
| 20260501163052 | 21 | 145 | 3.2 | 8.0 | 0.00 | 0.00 | 0.00 | 19 | 1017.0 |
| 20260501162549 | 21 | 160 | 1.6 | 6.4 | 0.00 | 0.00 | 0.00 | 20 | 1017.0 |
| 20260501162047 | 21 | 41 | 1.6 | 4.8 | 0.00 | 0.00 | 0.00 | 19 | 1017.0 |
| 20260501161553 | 21 | 122 | 1.6 | 4.8 | 0.00 | 0.00 | 0.00 | 19 | 1016.9 |
| 20260501161051 | 20 | 112 | 0.0 | 6.4 | 0.00 | 0.00 | 0.00 | 19 | 1016.9 |
| 20260501160548 | 20 | 184 | 1.6 | 6.4 | 0.00 | 0.00 | 0.00 | 20 | 1016.9 |
| 20260501160057 | 20 | 226 | 0.0 | 6.4 | 0.00 | 0.00 | 0.00 | 19 | 1016.8 |
| 20260501155549 | 20 | 101 | 1.6 | 6.4 | 0.00 | 0.00 | 0.00 | 19 | 1016.8 |
| 20260501155049 | 20 | 0 | 1.6 | 6.4 | 0.00 | 0.00 | 0.00 | 20 | 1016.8 |
| 20260501154552 | 19 | 146 | 1.6 | 4.8 | 0.00 | 0.00 | 0.00 | 19 | 1016.8 |
| 20260501154049 | 19 | 111 | 1.6 | 4.8 | 0.00 | 0.00 | 0.00 | 19 | 1016.8 |
| 20260501153548 | 19 | 110 | 0.0 | 3.2 | 0.00 | 0.00 | 0.00 | 20 | 1016.8 |
| 20260501153054 | 18 | 0 | 0.0 | 3.2 | 0.00 | 0.00 | 0.00 | 19 | 1016.7 |
| 20260501152550 | 18 | 0 | 1.6 | 3.2 | 0.00 | 0.00 | 0.00 | 21 | 1016.8 |
| 20260501152049 | 17 | 145 | 1.6 | 3.2 | 0.00 | 0.00 | 0.00 | 24 | 1016.7 |
| 20260501151548 | 17 | 137 | 1.6 | 3.2 | 0.00 | 0.00 | 0.00 | 24 | 1016.7 |
| 20260501151048 | 17 | 141 | 1.6 | 4.8 | 0.00 | 0.00 | 0.00 | 25 | 1016.7 |
| 20260501150551 | 17 | 147 | 1.6 | 4.8 | 0.00 | 0.00 | 0.00 | 25 | 1016.6 |
| 20260501150053 | 17 | 142 | 1.6 | 4.8 | 0.00 | 0.00 | 0.00 | 25 | 1016.6 |
| 20260501145550 | 17 | 0 | 0.0 | 4.8 | 0.00 | 0.00 | 0.00 | 27 | 1016.6 |
| 20260501145049 | 16 | 142 | 0.0 | 3.2 | 0.00 | 0.00 | 0.00 | 26 | 1016.6 |
| 20260501144549 | 16 | 165 | 0.0 | 1.6 | 0.00 | 0.00 | 0.00 | 26 | 1016.6 |